Flag for Macedonia, Republic of Weather past 2 weeks in Skopje, Macedonia, Republic of

Now
66 °F

Clear.


Feels Like: 66 °F
Forecast: 71 / 96 °F
Wind: No wind

Location: Skopje-Petrovec

Current Time: Aug 5, 2015 at 3:02:08 AM

Latest Report: Aug 5, 2015 at 2:00 AM


Visibility: 10 mi

Pressure: 29.95 "Hg

Humidity: 83%

Dew point: 61 °F

Location of SkopjeLocation

Historic Weather in Skopje — Graph

°F

Skopje temperature yesterday

Maximum temperature yesterday: 93 °F (at 3:30 PM)
Minimum temperature yesterday: 64 °F (at 4:00 AM)
Average temperature yesterday: 77 °F

Past Weeks' High & Low Weather Summary

 TemperatureHumidityPressure
High100 °F (Jul 29, 3:00 PM)100% (Jul 27, 1:00 AM)30.09 "Hg (Jul 27, 1:00 AM)
Low63 °F (Jul 27, 5:00 AM)17% (Jul 23, 5:00 PM)29.68 "Hg (Jul 27, 5:00 PM)
Average82 °F50%29.89 "Hg
* Reported Jul 21 2:00 AM — Aug 5 2:00 AM, Skopje, Weather by CustomWeather, © 2015

Note: Actual official high and low records may vary slightly from our data, if they occured in-between our weather recording intervals... More about our weather records

Advertising

Skopje weather history for previous 24 hours

 ConditionsComfort  
Time TempWeatherWind HumidityBarometerVisibility
2:00 AM
Wed, Aug 5
66 °FClear.No wind83%29.95 "Hg10 mi
1:30 AM68 °FClear.No wind78%29.95 "Hg10 mi
1:00 AM68 °FClear.2 mph78%29.95 "Hg10 mi
12:30 AM70 °FClear.2 mph73%29.95 "Hg10 mi
12:00 AM70 °FClear.No wind73%29.95 "Hg10 mi
11:30 PM
Tue, Aug 4
72 °FClear.No wind69%29.95 "Hg10 mi
11:00 PM72 °FClear.2 mph69%29.95 "Hg10 mi
10:30 PM72 °FClear.2 mph69%29.95 "Hg10 mi
10:00 PM72 °FClear.2 mph69%29.95 "Hg10 mi
9:30 PM75 °FPassing clouds.No wind61%29.95 "HgN/A
9:00 PM75 °FPassing clouds.No wind61%29.95 "HgN/A
8:30 PM77 °FPassing clouds.3 mph54%29.95 "HgN/A
8:00 PM79 °FPassing clouds.3 mph51%29.92 "HgN/A
7:30 PM81 °FScattered clouds.3 mph48%29.92 "HgN/A
7:00 PM82 °FScattered clouds.2 mph48%29.92 "HgN/A
6:30 PM84 °FScattered clouds.8 mph43%29.92 "HgN/A
6:00 PM86 °FScattered clouds.2 mph43%29.89 "HgN/A
5:30 PM86 °FScattered clouds.3 mph40%29.89 "HgN/A
5:00 PM90 °FPassing clouds.2 mph33%29.89 "HgN/A
4:30 PM91 °FPassing clouds.2 mph32%29.89 "HgN/A
4:00 PM93 °FPassing clouds.2 mph30%29.89 "HgN/A
3:30 PM93 °FPassing clouds.2 mph30%29.89 "HgN/A
3:00 PM91 °FPassing clouds.5 mph32%29.92 "HgN/A
2:30 PM90 °FPassing clouds.3 mph36%29.92 "HgN/A
2:00 PM90 °FPassing clouds.3 mph36%29.95 "HgN/A
1:30 PM88 °FPassing clouds.3 mph38%29.95 "HgN/A
1:00 PM88 °FPassing clouds.3 mph38%29.95 "HgN/A
12:30 PM86 °FPassing clouds.3 mph43%29.98 "HgN/A
12:00 PM84 °FSunny.5 mph45%29.98 "Hg10 mi
11:30 AM84 °FSunny.2 mph48%29.98 "Hg10 mi
11:00 AM82 °FSunny.No wind48%30.01 "Hg10 mi
10:30 AM79 °FSunny.No wind58%30.01 "Hg10 mi
10:00 AM77 °FSunny.No wind61%30.01 "Hg10 mi
9:30 AM75 °FSunny.No wind65%30.01 "Hg10 mi
9:00 AM75 °FSunny.No wind65%30.04 "Hg10 mi
8:00 AM72 °FSunny.No wind73%30.04 "Hg10 mi
7:30 AM68 °FScattered clouds.1 mph88%30.04 "HgN/A
7:00 AM68 °FPartly sunny.1 mph88%30.04 "HgN/A
6:30 AM66 °FPartly sunny.2 mph88%30.04 "HgN/A
6:00 AM66 °FPassing clouds.No wind88%30.04 "HgN/A
5:30 AM66 °FPassing clouds.1 mph88%30.04 "HgN/A
5:00 AM66 °FPassing clouds.No wind88%30.04 "HgN/A
4:30 AM66 °FPassing clouds.No wind88%30.04 "HgN/A
4:00 AM64 °FPassing clouds.1 mph94%30.04 "HgN/A
3:30 AM66 °FPassing clouds.No wind88%30.04 "HgN/A
3:00 AM66 °FPassing clouds.3 mph88%30.04 "HgN/A
Weather by CustomWeather, © 2015

See weather overviewHow to use our weather pages